Location: Cahas Mountain Overlook
(37.0833°N, 80.1000°W)
Time: 08:08:31
(UTC-05:00)

ARIANE 6 FM1 Upper Stage - Pass Details

Date: 18 January 2026
Orbit: 522 x 609 km, 62.0° (Epoch: 13 February)

Event Time Altitude Azimuth Distance (km) Brightness Sun altitude
Exits shadow 05:05:47 21° 148° (SSE) 1,248 4.7 -28.8°
Drops below altitude 10° 05:07:10 10° 148° (SSE) 1,791 5.6 -28.5°
Sets 05:09:23 0° 148° (SSE) 2,692 6.6 -28.1°
